CUBESAT XI-V

Last updated on Mon Sep 21 2026 00:03:14 GMT+0000 (Coordinated Universal Time)

1 28895U 05043F 26263.38442409 .00000829 00000+0 13773-3 0 9999 2 28895 98.3108 61.0906 0012788 262.9742 97.0011 14.72835614115762
UTC large
Height (km)
Speed (km/s)
/
Latitude / Longitude
Inclination (degrees)
Orbital Period (minutes)
Azimuth
Elevation
Range (km)
Doppler Factor

Next 0 passes for location: London (51.5072 / 0.1276)

No passes found over London.
CUBESAT XI-V